Timestamp, Local Timestamp, ID, PM25, PM10, Co2, Temperature, Relative Humidity, Monitor ID, O3
2022-02-03T21:20:34Z,02/03/22 16:20,7264628,0.46699999999999997,0.001,537,18.5,21.4,71,13.0
2022-02-03T21:21:34Z,02/03/22 16:21,7264636,0.354,0.0,532,18.5,21.4,71,13.0
2022-02-03T21:22:34Z,02/03/22 16:22,7264645,0.365,0.001,545,18.5,21.4,71,13.0
2022-02-03T21:23:34Z,02/03/22 16:23,7264656,0.395,0.001,532,18.5,21.4,71,13.0
2022-02-03T21:24:34Z,02/03/22 16:24,7264663,0.363,0.0,523,18.4,21.4,71,13.0
2022-02-03T21:25:34Z,02/03/22 16:25,7264672,0.271,0.002,523,18.4,21.4,71,13.0
2022-02-03T21:26:34Z,02/03/22 16:26,7264681,0.41600000000000004,0.001,532,18.4,21.4,71,12.0
2022-02-03T21:27:34Z,02/03/22 16:27,7264690,0.34199999999999997,0.0,532,18.4,21.4,71,13.0
2022-02-03T21:28:34Z,02/03/22 16:28,7264699,0.315,0.0,527,18.4,21.4,71,13.0
2022-02-03T21:29:34Z,02/03/22 16:29,7264708,0.318,0.0,522,18.4,21.4,71,13.0
2022-02-03T21:30:34Z,02/03/22 16:30,7264717,0.337,0.002,521,18.4,21.3,71,13.0
2022-02-03T21:31:34Z,02/03/22 16:31,7264734,0.362,0.001,532,18.4,21.3,71,13.0
2022-02-03T21:32:34Z,02/03/22 16:32,7264735,0.323,0.001,525,18.3,21.3,71,13.0
2022-02-03T21:33:34Z,02/03/22 16:33,7264744,0.327,0.003,515,18.3,21.3,71,13.0
2022-02-03T21:34:34Z,02/03/22 16:34,7264753,0.29,0.001,529,18.3,21.3,71,13.0
2022-02-03T21:35:34Z,02/03/22 16:35,7264762,0.32999999999999996,0.0,514,18.3,21.3,71,13.0
2022-02-03T21:36:34Z,02/03/22 16:36,7264771,0.294,0.0,511,18.3,21.2,71,13.0
2022-02-03T21:37:34Z,02/03/22 16:37,7264780,0.373,0.002,513,18.3,21.2,71,13.0
2022-02-03T21:38:34Z,02/03/22 16:38,7264790,0.32799999999999996,0.002,513,18.3,21.2,71,13.0
2022-02-03T21:39:34Z,02/03/22 16:39,7264798,0.288,0.0,513,18.3,21.2,71,13.0
2022-02-03T21:40:34Z,02/03/22 16:40,7264810,0.34700000000000003,0.004,514,18.3,21.2,71,12.0
2022-02-03T21:41:34Z,02/03/22 16:41,7264816,0.395,0.001,515,18.3,21.1,71,14.0
2022-02-03T21:42:55Z,02/03/22 16:42,7264828,0.381,0.0,517,18.2,21.1,71,13.0
2022-02-03T21:43:55Z,02/03/22 16:43,7264836,0.303,0.003,511,18.2,21.1,71,13.0
2022-02-03T21:44:55Z,02/03/22 16:44,7264844,0.274,0.002,505,18.2,21.1,71,13.0
2022-02-03T21:45:56Z,02/03/22 16:45,7264854,0.353,0.001,511,18.2,21.1,71,13.0
2022-02-03T21:46:55Z,02/03/22 16:46,7264862,0.40499999999999997,0.0,511,18.2,21.1,71,13.0
2022-02-03T21:47:55Z,02/03/22 16:47,7264870,0.369,0.003,522,18.2,21.1,71,13.0
2022-02-03T21:48:55Z,02/03/22 16:48,7264878,0.33399999999999996,0.002,525,18.2,21.1,71,13.0
2022-02-03T21:49:55Z,02/03/22 16:49,7264888,0.29,0.001,515,18.2,21.1,71,13.0
2022-02-03T21:50:55Z,02/03/22 16:50,7264897,0.377,0.001,521,18.2,21.1,71,13.0
2022-02-03T21:51:55Z,02/03/22 16:51,7264905,0.354,0.0,514,18.2,21.0,71,13.0
2022-02-03T21:52:55Z,02/03/22 16:52,7264914,0.324,0.0,513,18.1,21.0,71,13.0
2022-02-03T21:53:55Z,02/03/22 16:53,7264925,0.381,0.0,523,18.1,21.0,71,13.0
2022-02-03T21:54:55Z,02/03/22 16:54,7264932,0.346,0.002,513,18.1,21.0,71,12.0
2022-02-03T21:56:13Z,02/03/22 16:56,7264948,0.385,0.002,505,18.1,21.0,71,13.0
2022-02-03T21:57:13Z,02/03/22 16:57,7264950,0.34700000000000003,0.001,517,18.1,21.0,71,12.0
2022-02-03T21:58:13Z,02/03/22 16:58,7264962,0.279,0.0,523,18.1,21.0,71,13.0
2022-02-03T21:59:13Z,02/03/22 16:59,7264971,0.369,0.0,507,18.1,21.0,71,13.0
2022-02-03T22:00:13Z,02/03/22 17:00,7264977,0.369,0.003,509,18.1,20.9,71,13.0
2022-02-03T22:01:13Z,02/03/22 17:01,7264993,0.398,0.001,509,18.1,20.9,71,13.0
2022-02-03T22:02:13Z,02/03/22 17:02,7265002,0.38,0.001,517,18.1,20.9,71,13.0
2022-02-03T22:03:13Z,02/03/22 17:03,7265007,0.392,0.001,517,18.1,20.9,71,13.0
2022-02-03T22:04:13Z,02/03/22 17:04,7265013,0.43200000000000005,0.0,502,18.1,20.9,71,13.0
2022-02-03T22:05:13Z,02/03/22 17:05,7265022,0.284,0.001,505,18.1,20.9,71,13.0
2022-02-03T22:06:13Z,02/03/22 17:06,7265031,0.319,0.002,505,18.1,20.9,71,14.0
2022-02-03T22:07:13Z,02/03/22 17:07,7265040,0.29,0.001,505,18.1,20.8,71,14.0
2022-02-03T22:08:13Z,02/03/22 17:08,7265053,0.356,0.001,498,18.1,20.8,71,13.0
2022-02-03T22:09:13Z,02/03/22 17:09,7265058,0.324,0.0,505,18.1,20.8,71,13.0
2022-02-03T22:10:13Z,02/03/22 17:10,7265067,0.314,0.001,500,18.1,20.8,71,13.0
2022-02-03T22:11:13Z,02/03/22 17:11,7265083,0.356,0.004,500,18.1,20.8,71,13.0
2022-02-03T22:12:13Z,02/03/22 17:12,7265093,0.39,0.0,499,18.1,20.8,71,14.0
2022-02-03T22:13:13Z,02/03/22 17:13,7265099,0.366,0.0,490,18.1,20.8,71,12.0
2022-02-03T22:14:13Z,02/03/22 17:14,7265115,0.304,0.002,500,18.1,20.8,71,14.0
2022-02-03T22:15:13Z,02/03/22 17:15,7265116,0.312,0.0,495,18.1,20.8,71,14.0
2022-02-03T22:16:13Z,02/03/22 17:16,7265122,0.296,0.001,499,18.1,20.8,71,13.0
2022-02-03T22:19:36Z,02/03/22 17:19,7265155,0.374,0.001,498,18.0,20.8,71,13.0
2022-02-03T22:20:36Z,02/03/22 17:20,7265162,0.34700000000000003,0.001,492,18.0,20.8,71,13.0
2022-02-03T22:22:06Z,02/03/22 17:22,7265173,0.318,0.0,507,18.0,20.8,71,13.0
2022-02-03T22:23:06Z,02/03/22 17:23,7265182,0.429,0.0,498,18.0,20.8,71,13.0
2022-02-03T22:24:06Z,02/03/22 17:24,7265199,0.32599999999999996,0.001,494,18.0,20.7,71,13.0
2022-02-03T22:25:06Z,02/03/22 17:25,7265200,0.34199999999999997,0.0,495,18.0,20.7,71,13.0
2022-02-03T22:26:43Z,02/03/22 17:26,7265216,0.352,0.002,488,18.0,20.7,71,12.0
2022-02-03T22:27:43Z,02/03/22 17:27,7265226,0.433,0.002,494,18.0,20.7,71,13.0
2022-02-03T22:28:44Z,02/03/22 17:28,7265235,0.45099999999999996,0.002,492,18.0,20.7,71,13.0
2022-02-03T22:29:43Z,02/03/22 17:29,7265244,0.34199999999999997,0.0,488,18.0,20.7,71,13.0
2022-02-03T22:30:43Z,02/03/22 17:30,7265253,0.44699999999999995,0.0,484,18.0,20.7,71,13.0
2022-02-03T22:31:43Z,02/03/22 17:31,7265262,0.318,0.0,487,18.0,20.7,71,13.0
2022-02-03T22:32:43Z,02/03/22 17:32,7265270,0.269,0.001,486,18.0,20.7,71,13.0
2022-02-03T22:34:04Z,02/03/22 17:34,7265286,0.327,0.0,492,18.0,20.7,71,13.0
2022-02-03T22:35:04Z,02/03/22 17:35,7265289,0.248,0.001,486,18.0,20.7,71,13.0
2022-02-03T22:36:04Z,02/03/22 17:36,7265298,0.329,0.001,482,18.0,20.7,71,13.0
2022-02-03T22:37:04Z,02/03/22 17:37,7265307,0.395,0.001,490,18.0,20.6,71,13.0
2022-02-03T22:38:04Z,02/03/22 17:38,7265316,0.344,0.001,486,17.9,20.5,71,13.0
2022-02-03T22:39:04Z,02/03/22 17:39,7265325,0.377,0.001,478,17.9,20.5,71,13.0
2022-02-03T22:40:04Z,02/03/22 17:40,7265336,0.34199999999999997,0.0,482,17.9,20.5,71,13.0
2022-02-03T22:41:04Z,02/03/22 17:41,7265352,0.329,0.001,479,17.9,20.5,71,13.0
2022-02-03T22:42:04Z,02/03/22 17:42,7265353,0.329,0.001,479,17.9,20.5,71,12.0
2022-02-03T22:43:04Z,02/03/22 17:43,7265368,0.305,0.001,484,17.9,20.5,71,13.0
2022-02-03T22:44:04Z,02/03/22 17:44,7265380,0.367,0.002,484,17.9,20.5,71,12.0
2022-02-03T22:45:04Z,02/03/22 17:45,7265381,0.331,0.002,491,17.9,20.5,71,13.0
2022-02-03T22:46:23Z,02/03/22 17:46,7265396,0.378,0.0,490,17.9,20.5,71,12.0
2022-02-03T22:47:23Z,02/03/22 17:47,7265404,0.43099999999999994,0.001,490,17.9,20.5,71,12.0
2022-02-03T22:48:44Z,02/03/22 17:48,7265415,0.32599999999999996,0.001,482,17.9,20.5,71,12.0
2022-02-03T22:49:44Z,02/03/22 17:49,7265426,0.314,0.001,490,17.9,20.5,71,13.0
2022-02-03T22:50:44Z,02/03/22 17:50,7265435,0.36,0.0,482,17.9,20.5,71,13.0
2022-02-03T22:51:44Z,02/03/22 17:51,7265442,0.42699999999999994,0.002,499,17.9,20.5,71,13.0
2022-02-03T22:52:44Z,02/03/22 17:52,7265452,0.375,0.0,491,17.9,20.5,71,12.0
2022-02-03T22:53:44Z,02/03/22 17:53,7265460,0.403,0.002,486,17.9,20.5,71,12.0
2022-02-03T22:54:44Z,02/03/22 17:54,7265470,0.385,0.002,479,17.9,20.5,71,13.0
2022-02-03T22:55:44Z,02/03/22 17:55,7265479,0.306,0.0,491,17.9,20.5,71,12.0
2022-02-03T22:56:44Z,02/03/22 17:56,7265488,0.351,0.0,482,17.9,20.5,71,12.0
2022-02-03T22:57:44Z,02/03/22 17:57,7265497,0.296,0.004,480,17.9,20.5,71,12.0
2022-02-03T22:58:44Z,02/03/22 17:58,7265504,0.343,0.002,478,17.9,20.5,71,12.0
2022-02-03T22:59:44Z,02/03/22 17:59,7265515,0.29500000000000004,0.002,477,17.9,20.5,71,13.0
2022-02-03T23:00:44Z,02/03/22 18:00,7265524,0.42800000000000005,0.001,471,17.9,20.5,71,12.0
2022-02-03T23:01:44Z,02/03/22 18:01,7265533,0.303,0.0,475,17.9,20.5,71,12.0
2022-02-03T23:02:44Z,02/03/22 18:02,7265542,0.34700000000000003,0.001,477,17.9,20.5,71,13.0
2022-02-03T23:03:44Z,02/03/22 18:03,7265551,0.33599999999999997,0.0,479,17.9,20.5,71,12.0
2022-02-03T23:04:44Z,02/03/22 18:04,7265559,0.351,0.0,486,17.9,20.5,71,13.0
2022-02-03T23:05:44Z,02/03/22 18:05,7265575,0.329,0.001,474,17.8,20.5,71,12.0
2022-02-03T23:06:44Z,02/03/22 18:06,7265576,0.364,0.002,477,17.8,20.5,71,12.0
2022-02-03T23:07:44Z,02/03/22 18:07,7265585,0.24500000000000002,0.001,471,17.8,20.5,71,13.0
2022-02-03T23:08:44Z,02/03/22 18:08,7265594,0.24300000000000002,0.0,477,17.8,20.5,71,12.0
2022-02-03T23:09:44Z,02/03/22 18:09,7265603,0.303,0.003,482,17.8,20.5,71,13.0
2022-02-03T23:10:44Z,02/03/22 18:10,7265612,0.329,0.001,478,17.8,20.5,71,12.0
2022-02-03T23:11:44Z,02/03/22 18:11,7265623,0.356,0.001,479,17.8,20.5,71,12.0
2022-02-03T23:12:44Z,02/03/22 18:12,7265630,0.392,0.001,483,17.8,20.5,71,12.0
2022-02-03T23:13:44Z,02/03/22 18:13,7265639,0.317,0.001,482,17.8,20.5,71,12.0
2022-02-03T23:14:44Z,02/03/22 18:14,7265674,0.32999999999999996,0.003,486,17.8,20.5,71,13.0
2022-02-03T23:15:44Z,02/03/22 18:15,7265675,0.3,0.0,471,17.8,20.5,71,12.0
2022-02-03T23:19:28Z,02/03/22 18:19,7265690,0.227,0.001,471,17.8,20.4,71,13.0
2022-02-03T23:20:28Z,02/03/22 18:20,7265699,0.312,0.0,478,17.8,20.4,71,12.0
2022-02-03T23:21:28Z,02/03/22 18:21,7265708,0.281,0.001,475,17.8,20.5,71,12.0
2022-02-03T23:22:28Z,02/03/22 18:22,7265717,0.368,0.001,469,17.7,20.4,71,12.0
2022-02-03T23:23:28Z,02/03/22 18:23,7265726,0.361,0.002,486,17.7,20.4,71,12.0
2022-02-03T23:24:28Z,02/03/22 18:24,7265735,0.23399999999999999,0.0,483,17.7,20.4,71,12.0
2022-02-03T23:25:28Z,02/03/22 18:25,7265744,0.309,0.0,478,17.7,20.4,71,13.0
2022-02-03T23:26:28Z,02/03/22 18:26,7265753,0.267,0.0,466,17.7,20.4,71,12.0
2022-02-03T23:27:28Z,02/03/22 18:27,7265762,0.275,0.001,477,17.7,20.4,71,12.0
2022-02-03T23:28:28Z,02/03/22 18:28,7265771,0.346,0.002,471,17.7,20.4,71,13.0
2022-02-03T23:29:28Z,02/03/22 18:29,7265780,0.356,0.001,469,17.7,20.4,71,13.0
2022-02-03T23:30:28Z,02/03/22 18:30,7265789,0.29700000000000004,0.0,468,17.7,20.4,71,13.0
2022-02-03T23:31:28Z,02/03/22 18:31,7265798,0.296,0.001,469,17.7,20.4,71,12.0
2022-02-03T23:32:28Z,02/03/22 18:32,7265807,0.292,0.002,474,17.7,20.4,71,13.0
2022-02-03T23:33:28Z,02/03/22 18:33,7265816,0.333,0.0,478,17.7,20.4,71,12.0
2022-02-03T23:34:28Z,02/03/22 18:34,7265825,0.34199999999999997,0.003,464,17.6,20.4,71,13.0
2022-02-03T23:35:28Z,02/03/22 18:35,7265834,0.33599999999999997,0.0,469,17.6,20.4,71,12.0
2022-02-03T23:36:28Z,02/03/22 18:36,7265843,0.39,0.0,468,17.6,20.4,71,12.0
2022-02-03T23:37:28Z,02/03/22 18:37,7265852,0.321,0.0,459,17.6,20.4,71,12.0
2022-02-03T23:38:28Z,02/03/22 18:38,7265861,0.33799999999999997,0.001,461,17.6,20.4,71,13.0
2022-02-03T23:39:28Z,02/03/22 18:39,7265870,0.319,0.002,464,17.6,20.4,71,13.0
2022-02-03T23:40:28Z,02/03/22 18:40,7265879,0.341,0.001,464,17.6,20.4,71,12.0
2022-02-03T23:41:28Z,02/03/22 18:41,7265888,0.382,0.002,460,17.6,20.4,71,12.0
2022-02-03T23:42:28Z,02/03/22 18:42,7265905,0.339,0.0,464,17.6,20.4,71,13.0
2022-02-03T23:43:28Z,02/03/22 18:43,7265906,0.333,0.0,470,17.6,20.4,71,12.0
2022-02-03T23:44:29Z,02/03/22 18:44,7265915,0.324,0.0,469,17.6,20.4,71,13.0
2022-02-03T23:45:47Z,02/03/22 18:45,7265924,0.34700000000000003,0.001,471,17.6,20.4,71,13.0
2022-02-03T23:46:47Z,02/03/22 18:46,7265933,0.34500000000000003,0.0,468,17.6,20.4,71,12.0
2022-02-03T23:47:47Z,02/03/22 18:47,7265942,0.308,0.001,471,17.6,20.4,71,13.0
2022-02-03T23:48:47Z,02/03/22 18:48,7265951,0.323,0.001,478,17.6,20.4,71,13.0
2022-02-03T23:49:47Z,02/03/22 18:49,7265960,0.311,0.001,465,17.6,20.4,71,13.0
2022-02-03T23:50:47Z,02/03/22 18:50,7265969,0.339,0.0,469,17.6,20.3,71,12.0
2022-02-03T23:51:47Z,02/03/22 18:51,7265983,0.371,0.001,456,17.6,20.3,71,13.0
2022-02-03T23:52:47Z,02/03/22 18:52,7265987,0.318,0.0,460,17.6,20.3,71,12.0
2022-02-03T23:54:08Z,02/03/22 18:54,7266001,0.366,0.0,463,17.6,20.3,71,13.0
2022-02-03T23:55:08Z,02/03/22 18:55,7266007,0.35,0.001,470,17.6,20.3,71,13.0
2022-02-03T23:56:08Z,02/03/22 18:56,7266017,0.29,0.001,468,17.6,20.3,71,12.0
2022-02-03T23:57:08Z,02/03/22 18:57,7266025,0.308,0.001,457,17.6,20.3,71,12.0
2022-02-03T23:58:08Z,02/03/22 18:58,7266034,0.374,0.001,460,17.5,20.3,71,12.0
2022-02-03T23:59:08Z,02/03/22 18:59,7266043,0.324,0.0,468,17.5,20.3,71,12.0
2022-02-04T00:00:08Z,02/03/22 19:00,7266052,0.327,0.0,465,17.5,20.3,71,13.0
2022-02-04T00:01:08Z,02/03/22 19:01,7266061,0.37,0.002,465,17.5,20.3,71,13.0
2022-02-04T00:02:08Z,02/03/22 19:02,7266071,0.386,0.001,460,17.5,20.3,71,13.0
2022-02-04T00:03:08Z,02/03/22 19:03,7266080,0.382,0.002,473,17.5,20.3,71,13.0
2022-02-04T00:04:08Z,02/03/22 19:04,7266089,0.34700000000000003,0.001,463,17.5,20.3,71,12.0
2022-02-04T00:05:08Z,02/03/22 19:05,7266098,0.41100000000000003,0.0,471,17.5,20.3,71,13.0
2022-02-04T00:06:08Z,02/03/22 19:06,7266107,0.282,0.0,473,17.5,20.3,71,13.0
2022-02-04T00:07:08Z,02/03/22 19:07,7266115,0.374,0.001,473,17.5,20.3,71,12.0
2022-02-04T00:08:08Z,02/03/22 19:08,7266125,0.333,0.0,456,17.5,20.3,71,13.0
2022-02-04T00:09:08Z,02/03/22 19:09,7266134,0.27999999999999997,0.002,466,17.5,20.3,71,13.0
2022-02-04T00:10:08Z,02/03/22 19:10,7266142,0.28900000000000003,0.002,464,17.5,20.3,71,12.0
2022-02-04T00:11:08Z,02/03/22 19:11,7266151,0.399,0.0,461,17.5,20.3,71,13.0
2022-02-04T00:12:08Z,02/03/22 19:12,7266161,0.32999999999999996,0.0,465,17.5,20.3,71,12.0
2022-02-04T00:13:08Z,02/03/22 19:13,7266170,0.314,0.001,468,17.5,20.3,71,13.0
2022-02-04T00:14:08Z,02/03/22 19:14,7266184,0.32599999999999996,0.001,464,17.4,20.3,71,13.0
2022-02-04T00:15:08Z,02/03/22 19:15,7266187,0.32999999999999996,0.0,465,17.4,20.3,71,13.0
2022-02-04T00:16:08Z,02/03/22 19:16,7266196,0.309,0.0,468,17.4,20.3,71,13.0
2022-02-04T00:17:08Z,02/03/22 19:17,7266206,0.374,0.001,459,17.4,20.3,71,12.0
2022-02-04T00:18:08Z,02/03/22 19:18,7266214,0.277,0.002,469,17.4,20.3,71,13.0
2022-02-04T00:19:08Z,02/03/22 19:19,7266223,0.324,0.0,465,17.4,20.3,71,12.0
2022-02-04T00:20:08Z,02/03/22 19:20,7266234,0.29300000000000004,0.001,457,17.4,20.3,71,12.0
2022-02-04T00:21:08Z,02/03/22 19:21,7266242,0.23399999999999999,0.0,460,17.4,20.3,71,12.0
2022-02-04T00:22:08Z,02/03/22 19:22,7266252,0.4,0.008,464,17.4,20.3,71,13.0
2022-02-04T00:23:08Z,02/03/22 19:23,7266260,0.43200000000000005,0.0,465,17.4,20.3,71,13.0
2022-02-04T00:24:08Z,02/03/22 19:24,7266275,0.309,0.0,461,17.4,20.2,71,13.0
2022-02-04T00:25:08Z,02/03/22 19:25,7266278,0.308,0.001,459,17.4,20.2,71,13.0
2022-02-04T00:26:08Z,02/03/22 19:26,7266289,0.41600000000000004,0.001,470,17.4,20.2,71,13.0
2022-02-04T00:27:08Z,02/03/22 19:27,7266296,0.303,0.0,461,17.4,20.3,71,12.0
2022-02-04T00:28:08Z,02/03/22 19:28,7266305,0.369,0.0,470,17.4,20.3,71,12.0
2022-02-04T00:29:08Z,02/03/22 19:29,7266314,0.252,0.0,461,17.4,20.2,71,13.0
2022-02-04T00:30:08Z,02/03/22 19:30,7266323,0.33599999999999997,0.0,464,17.4,20.3,71,13.0
2022-02-04T00:31:08Z,02/03/22 19:31,7266332,0.341,0.001,460,17.4,20.3,71,12.0
2022-02-04T00:32:08Z,02/03/22 19:32,7266340,0.371,0.001,460,17.4,20.2,71,13.0
2022-02-04T00:33:08Z,02/03/22 19:33,7266355,0.31,0.002,456,17.4,20.3,71,13.0
2022-02-04T00:34:08Z,02/03/22 19:34,7266357,0.354,0.0,464,17.4,20.2,71,13.0
2022-02-04T00:35:26Z,02/03/22 19:35,7266373,0.344,0.001,471,17.4,20.2,71,13.0
2022-02-04T00:36:26Z,02/03/22 19:36,7266382,0.34199999999999997,0.0,460,17.4,20.2,71,12.0
2022-02-04T00:37:26Z,02/03/22 19:37,7266391,0.388,0.002,457,17.4,20.2,71,13.0
2022-02-04T00:38:26Z,02/03/22 19:38,7266400,0.306,0.0,468,17.4,20.2,71,12.0
2022-02-04T00:39:26Z,02/03/22 19:39,7266409,0.28700000000000003,0.001,464,17.4,20.2,71,13.0
2022-02-04T00:40:26Z,02/03/22 19:40,7266418,0.27799999999999997,0.001,456,17.4,20.2,71,13.0
2022-02-04T00:41:26Z,02/03/22 19:41,7266427,0.321,0.0,469,17.4,20.2,71,12.0
2022-02-04T00:42:26Z,02/03/22 19:42,7266436,0.33599999999999997,0.0,465,17.4,20.2,71,12.0
2022-02-04T00:43:57Z,02/03/22 19:43,7266446,0.429,0.0,461,17.4,20.2,71,13.0
2022-02-04T00:44:57Z,02/03/22 19:44,7266457,0.354,0.0,464,17.4,20.2,71,13.0
2022-02-04T00:45:58Z,02/03/22 19:45,7266463,0.324,0.0,457,17.4,20.2,71,13.0
2022-02-04T00:46:57Z,02/03/22 19:46,7266472,0.386,0.001,463,17.4,20.2,71,13.0
2022-02-04T00:47:57Z,02/03/22 19:47,7266481,0.393,0.0,466,17.4,20.2,71,13.0
2022-02-04T00:48:57Z,02/03/22 19:48,7266491,0.27,0.0,460,17.4,20.2,71,13.0
2022-02-04T00:49:57Z,02/03/22 19:49,7266505,0.367,0.002,457,17.4,20.2,71,13.0
2022-02-04T00:50:57Z,02/03/22 19:50,7266507,0.359,0.001,457,17.4,20.2,71,12.0
2022-02-04T00:51:57Z,02/03/22 19:51,7266517,0.396,0.0,461,17.4,20.2,71,12.0
2022-02-04T00:52:57Z,02/03/22 19:52,7266531,0.321,0.003,442,17.4,20.2,71,13.0
2022-02-04T00:53:57Z,02/03/22 19:53,7266536,0.309,0.0,461,17.4,20.2,71,13.0
2022-02-04T00:54:57Z,02/03/22 19:54,7266545,0.426,0.0,460,17.4,20.2,71,13.0
2022-02-04T00:55:57Z,02/03/22 19:55,7266554,0.42000000000000004,0.0,465,17.4,20.2,71,13.0
2022-02-04T00:56:57Z,02/03/22 19:56,7266563,0.357,0.0,460,17.4,20.2,71,12.0
2022-02-04T00:57:57Z,02/03/22 19:57,7266573,0.389,0.001,463,17.4,20.2,71,12.0
2022-02-04T00:58:57Z,02/03/22 19:58,7266582,0.29,0.001,460,17.4,20.2,71,13.0
2022-02-04T00:59:57Z,02/03/22 19:59,7266591,0.344,0.001,450,17.4,20.2,71,12.0
2022-02-04T01:00:57Z,02/03/22 20:00,7266602,0.41200000000000003,0.002,460,17.4,20.2,71,13.0
2022-02-04T01:01:57Z,02/03/22 20:01,7266609,0.386,0.004,452,17.4,20.2,71,12.0
2022-02-04T01:03:17Z,02/03/22 20:03,7266624,0.28700000000000003,0.001,456,17.4,20.2,71,13.0
2022-02-04T01:04:17Z,02/03/22 20:04,7266632,0.417,0.0,457,17.4,20.2,71,12.0
2022-02-04T01:05:17Z,02/03/22 20:05,7266645,0.341,0.001,450,17.4,20.2,71,13.0
2022-02-04T01:06:17Z,02/03/22 20:06,7266654,0.306,0.0,460,17.4,20.2,71,12.0
2022-02-04T01:07:17Z,02/03/22 20:07,7266661,0.392,0.004,456,17.4,20.2,71,13.0
2022-02-04T01:08:17Z,02/03/22 20:08,7266670,0.309,0.0,452,17.4,20.2,71,13.0
2022-02-04T01:09:17Z,02/03/22 20:09,7266678,0.257,0.001,459,17.4,20.2,71,13.0
2022-02-04T01:10:17Z,02/03/22 20:10,7266688,0.369,0.0,456,17.4,20.1,71,13.0
2022-02-04T01:11:17Z,02/03/22 20:11,7266697,0.393,0.0,459,17.4,20.1,71,12.0
2022-02-04T01:12:17Z,02/03/22 20:12,7266707,0.32999999999999996,0.0,446,17.4,20.1,71,13.0
2022-02-04T01:13:17Z,02/03/22 20:13,7266719,0.377,0.001,450,17.4,20.1,71,13.0
2022-02-04T01:16:14Z,02/03/22 20:16,7266744,0.307,0.002,451,17.3,20.1,71,13.0
2022-02-04T01:17:14Z,02/03/22 20:17,7266749,0.277,0.002,452,17.3,20.1,71,12.0
2022-02-04T01:18:14Z,02/03/22 20:18,7266759,0.37,0.002,459,17.3,20.1,71,12.0
2022-02-04T01:19:14Z,02/03/22 20:19,7266769,0.333,0.0,447,17.3,20.1,71,12.0
2022-02-04T01:20:14Z,02/03/22 20:20,7266777,0.397,0.002,456,17.3,20.1,71,13.0
2022-02-04T01:22:14Z,02/03/22 20:22,7266793,0.40599999999999997,0.002,463,17.3,20.1,71,13.0
2022-02-04T01:23:43Z,02/03/22 20:23,7266808,0.385,0.005,450,17.3,20.1,71,13.0
2022-02-04T01:24:43Z,02/03/22 20:24,7266817,0.302,0.001,460,17.3,20.1,71,13.0
2022-02-04T01:25:43Z,02/03/22 20:25,7266826,0.372,0.0,450,17.3,20.1,71,12.0
2022-02-04T01:26:43Z,02/03/22 20:26,7266836,0.28900000000000003,0.002,456,17.3,20.1,71,12.0
2022-02-04T01:27:43Z,02/03/22 20:27,7266845,0.40199999999999997,0.0,448,17.3,20.1,71,13.0
2022-02-04T01:28:44Z,02/03/22 20:28,7266854,0.357,0.003,463,17.3,20.1,71,12.0
2022-02-04T01:29:43Z,02/03/22 20:29,7266863,0.34199999999999997,0.0,459,17.3,20.1,71,12.0
2022-02-04T01:30:43Z,02/03/22 20:30,7266872,0.386,0.001,456,17.3,20.1,71,12.0
2022-02-04T01:31:43Z,02/03/22 20:31,7266882,0.317,0.001,441,17.3,20.1,71,13.0
2022-02-04T01:32:43Z,02/03/22 20:32,7266891,0.341,0.001,455,17.3,20.1,71,13.0
2022-02-04T01:33:43Z,02/03/22 20:33,7266900,0.333,0.0,455,17.3,20.1,71,13.0
2022-02-04T01:34:43Z,02/03/22 20:34,7266909,0.449,0.001,456,17.3,20.1,71,13.0
2022-02-04T01:35:43Z,02/03/22 20:35,7266918,0.255,0.0,459,17.3,20.1,71,13.0
2022-02-04T01:36:43Z,02/03/22 20:36,7266928,0.314,0.001,454,17.3,20.1,71,13.0
2022-02-04T01:37:43Z,02/03/22 20:37,7266937,0.387,0.0,446,17.3,20.1,71,13.0
2022-02-04T01:38:43Z,02/03/22 20:38,7266946,0.354,0.0,455,17.3,20.1,71,13.0
2022-02-04T01:39:43Z,02/03/22 20:39,7266955,0.34700000000000003,0.001,451,17.3,20.1,71,12.0
2022-02-04T01:40:43Z,02/03/22 20:40,7266964,0.311,0.001,448,17.3,20.1,71,13.0
2022-02-04T01:41:43Z,02/03/22 20:41,7266974,0.305,0.001,448,17.3,20.1,71,12.0
2022-02-04T01:42:43Z,02/03/22 20:42,7266983,0.378,0.0,451,17.3,20.1,71,13.0
2022-02-04T01:43:43Z,02/03/22 20:43,7266992,0.425,0.001,442,17.3,20.1,71,13.0
2022-02-04T01:44:43Z,02/03/22 20:44,7267000,0.341,0.001,450,17.2,20.1,71,13.0
2022-02-04T01:45:43Z,02/03/22 20:45,7267010,0.46399999999999997,0.001,451,17.2,20.1,71,13.0
2022-02-04T01:46:43Z,02/03/22 20:46,7267019,0.284,0.001,456,17.2,20.1,71,12.0
2022-02-04T01:47:43Z,02/03/22 20:47,7267027,0.305,0.001,464,17.2,20.1,71,13.0
2022-02-04T01:48:43Z,02/03/22 20:48,7267037,0.437,0.001,452,17.2,20.0,71,13.0
2022-02-04T01:49:43Z,02/03/22 20:49,7267046,0.41900000000000004,0.001,450,17.2,20.0,71,13.0
2022-02-04T01:50:43Z,02/03/22 20:50,7267055,0.392,0.001,446,17.2,20.0,71,13.0
2022-02-04T01:51:43Z,02/03/22 20:51,7267073,0.324,0.0,447,17.2,20.0,71,13.0
2022-02-04T01:52:43Z,02/03/22 20:52,7267072,0.288,0.0,454,17.2,20.0,71,13.0
2022-02-04T01:54:02Z,02/03/22 20:54,7267082,0.38,0.001,450,17.2,20.0,71,13.0
2022-02-04T01:55:02Z,02/03/22 20:55,7267107,0.359,0.001,452,17.2,20.1,71,12.0
2022-02-04T01:56:02Z,02/03/22 20:56,7267108,0.294,0.0,452,17.2,20.1,71,13.0
2022-02-04T01:58:02Z,02/03/22 20:58,7267124,0.29100000000000004,0.003,452,17.2,20.1,71,12.0
2022-02-04T01:59:02Z,02/03/22 20:59,7267131,0.318,0.0,452,17.2,20.0,71,12.0
2022-02-04T02:00:02Z,02/03/22 21:00,7267136,0.343,0.002,456,17.2,20.0,71,13.0
2022-02-04T02:01:18Z,02/03/22 21:01,7267149,0.389,0.001,447,17.2,20.0,71,13.0
2022-02-04T02:02:18Z,02/03/22 21:02,7267178,0.362,0.001,447,17.2,20.0,71,12.0
2022-02-04T02:03:18Z,02/03/22 21:03,7267179,0.398,0.001,457,17.2,20.0,71,13.0
2022-02-04T02:08:24Z,02/03/22 21:08,7267218,0.355,0.002,441,17.2,20.0,71,12.0
2022-02-04T02:09:24Z,02/03/22 21:09,7267219,0.449,0.001,442,17.2,20.0,71,13.0
2022-02-04T02:10:24Z,02/03/22 21:10,7267237,0.40800000000000003,0.0,446,17.2,20.0,71,13.0
2022-02-04T02:13:06Z,02/03/22 21:13,7267246,0.377,0.001,450,17.2,20.0,71,12.0
2022-02-04T02:14:06Z,02/03/22 21:14,7267258,0.352,0.005,456,17.2,20.0,71,12.0
2022-02-04T02:15:06Z,02/03/22 21:15,7267271,0.356,0.001,452,17.2,20.0,71,13.0
2022-02-04T02:16:06Z,02/03/22 21:16,7267281,0.403,0.002,441,17.2,20.0,71,12.0
2022-02-04T02:17:06Z,02/03/22 21:17,7267282,0.4,0.002,446,17.2,20.0,71,12.0
2022-02-04T02:18:06Z,02/03/22 21:18,7267292,0.309,0.0,448,17.2,20.0,71,13.0
2022-02-04T02:19:06Z,02/03/22 21:19,7267307,0.325,0.002,454,17.2,20.0,71,12.0
2022-02-04T02:20:06Z,02/03/22 21:20,7267316,0.39,0.003,456,17.2,19.9,71,13.0
2022-02-04T02:21:37Z,02/03/22 21:21,7267349,0.35,0.001,450,17.2,20.0,71,12.0
2022-02-04T02:22:37Z,02/03/22 21:22,7267350,0.414,0.0,446,17.2,19.9,71,12.0
2022-02-04T02:26:03Z,02/03/22 21:26,7267360,0.44400000000000006,0.0,446,17.2,19.9,71,13.0
2022-02-04T02:27:04Z,02/03/22 21:27,7267374,0.313,0.002,447,17.2,19.9,71,13.0
2022-02-04T02:28:03Z,02/03/22 21:28,7267383,0.333,0.0,454,17.2,19.9,71,12.0
2022-02-04T02:29:03Z,02/03/22 21:29,7267387,0.393,0.0,452,17.2,19.9,71,12.0
2022-02-04T02:30:31Z,02/03/22 21:30,7267412,0.256,0.002,447,17.2,19.9,71,13.0
2022-02-04T02:31:31Z,02/03/22 21:31,7267411,0.41500000000000004,0.002,457,17.2,19.9,71,13.0
2022-02-04T02:32:51Z,02/03/22 21:32,7267422,0.36,0.0,443,17.2,19.9,71,13.0
2022-02-04T02:33:51Z,02/03/22 21:33,7267431,0.413,0.001,446,17.2,19.9,71,12.0
2022-02-04T02:34:51Z,02/03/22 21:34,7267440,0.45899999999999996,0.0,446,17.2,19.9,71,12.0
2022-02-04T02:35:51Z,02/03/22 21:35,7267449,0.368,0.001,456,17.2,19.9,71,12.0
2022-02-04T02:36:51Z,02/03/22 21:36,7267458,0.32999999999999996,0.0,446,17.2,19.9,71,13.0